[[{"header":{"parameterUnit":"m.s-1","parameterCategory":1,"la1":30.2991,"la2":30.254,"lo1":-89.0895,"lo2":-89.0444,"dy":0.0017,"dx":0.0017,"nx":28,"ny":28,"refTime":"2023-10-08T03:00:00:Z","depth":0,"parameterNumber":2,"parameterNumberName":"U-component_of_WINDS"},"data":[0,0,0,0,0,0,0,0,0,0,0,0,0,0,0,0,0,0,0,0,0,0,0,0,0,0,0,0,0,0,0,0,0,0,0,0,0,0,0,0,0,0,0,0,0,0,0,0,0,0,0,0,0,0,0,0,0,0,2.0242,2.0243,0,2.0327,2.0328,2.0329,2.0334,2.0333,2.0332,2.0331,2.0416,2.0419,2.0422,0,0,0,0,0,0,0,0,0,0,0,0,0,2.008,2.0083,2.0242,2.0243,2.0244,2.0327,2.0328,2.0329,2.0334,2.0333,2.0332,2.0331,2.0415,2.0419,2.0422,0,0,0,0,0,0,0,0,0,0,0,0,0,2.0156,2.0084,2.0241,2.0256,2.0259,2.0327,2.0328,2.0329,2.0334,2.0333,2.0331,2.033,2.0414,2.0418,2.0423,2.0481,0,0,2.0437,2.0439,0,0,0,0,0,0,0,0,2.0152,2.0162,2.0253,2.0255,2.0258,2.0318,2.0302,2.038,2.0335,2.0305,2.0331,2.0329,2.0384,2.0391,2.0411,2.0485,2.0489,2.0438,2.0441,2.0443,2.0444,0,0,0,0,0,0,0,2.0147,2.0159,2.0275,2.0254,2.0257,2.0258,2.0267,2.0317,2.0352,2.0308,2.0308,2.0319,2.0385,2.0406,2.0413,2.049,2.0438,2.0442,2.0445,2.0447,2.0614,2.0616,0,0,0,0,0,0,2.0139,2.0154,2.0273,2.0278,2.02,2.0262,2.0272,2.03,2.0351,2.0358,2.032,2.0318,2.0399,2.0407,2.0416,2.0485,2.0443,2.0447,2.045,2.0613,2.0615,2.0616,0,0,0,0,0,0,2.0136,2.015,2.0269,2.0216,2.0232,2.0266,2.0298,2.0303,2.0323,2.036,2.0366,2.0334,2.0398,2.0409,2.0464,2.0488,2.0449,2.0453,2.0611,2.0613,2.0616,2.0626,0,0,0,0,0,0,2.0131,2.0148,2.0171,2.0217,2.0234,2.0317,2.0299,2.0306,2.0332,2.0331,2.0376,2.0382,2.0397,2.0457,2.0469,2.0494,2.0457,2.0609,2.0612,2.0615,2.0624,2.0628,2.0633,0,0,0,0,0,2.0125,2.0171,2.0173,2.0187,2.0264,2.0319,2.0329,2.0347,2.0334,2.0356,2.038,2.038,2.0484,2.0463,2.0476,2.0503,2.0607,2.0611,2.0615,2.0621,2.0627,2.0632,0,0,0,0,0,0,2.0127,2.0177,2.0179,2.0242,2.0276,2.032,2.0349,2.0353,2.0391,2.0388,2.0408,2.0418,2.0473,2.0494,2.0469,2.0561,2.0544,2.0551,2.0545,2.0551,2.0555,2.0548,2.0461,0,0,0,0,0,2.0134,2.0176,2.0217,2.0268,2.0285,2.0314,2.0339,2.0349,2.0385,2.04,2.0428,2.0462,2.0502,2.0528,2.0567,2.0627,2.0636,2.0652,2.0657,2.066,2.0665,2.0696,2.0703,2.0628,2.0628,2.0628,0,0,2.015,2.0183,2.0208,2.0269,2.0297,2.0337,2.0326,2.037,2.04,2.0406,2.046,2.0482,2.0521,2.0579,2.0605,2.0598,2.0688,2.0665,2.0667,2.067,2.0701,2.0708,2.0714,2.0631,2.063,2.063,0,0,2.02,2.023,2.0274,2.0302,2.0345,2.0364,2.0375,2.0418,2.0433,2.0487,2.0492,2.0528,2.0597,2.0625,2.0648,2.0707,2.0708,2.072,2.0742,2.0772,2.0778,2.0783,2.0802,2.0809,2.0724,2.0724,2.0725,0,2.0213,2.0276,2.0296,2.034,2.0366,2.0374,2.0418,2.0445,2.0498,2.0515,2.0506,2.0592,2.062,2.0683,2.0697,2.0716,2.0728,2.0713,2.0776,2.0781,2.0786,2.0804,2.0812,2.0725,2.0725,2.0725,2.0725,0,2.029,2.0333,2.0364,2.0415,2.0445,2.0489,2.0514,2.0541,2.055,2.0569,2.0624,2.0657,2.0702,2.0719,2.0728,2.0783,2.0776,2.0772,2.0755,2.0794,2.0811,2.0819,2.0727,2.0726,2.0726,2.0726,0,0,2.0341,2.0403,2.0414,2.0436,2.0484,2.0517,2.0561,2.0606,2.0628,2.0664,2.07,2.0759,2.0754,2.078,2.0792,2.0819,2.0861,2.0811,2.0812,2.0817,2.0921,2.0923,2.0931,2.0863,2.0864,2.0866,2.0917,0,2.0394,2.0472,2.0491,2.0558,2.0596,2.0605,2.0643,2.0675,2.0695,2.073,2.0752,2.0792,2.0785,2.08,2.0827,2.085,2.0882,2.0847,2.0894,2.0896,2.0881,2.094,2.0942,2.0989,2.0924,2.0926,2.0926,0,2.0465,2.0503,2.0574,2.0615,2.0632,2.0666,2.0707,2.0742,2.0779,2.0791,2.082,2.0829,2.0873,2.0856,2.0916,2.0892,2.0913,2.0927,2.0929,2.0932,2.0912,2.0942,2.1005,2.1011,2.0938,2.0937,2.0936,0,2.0492,2.0561,2.0612,2.0631,2.0682,2.0705,2.0726,2.0762,2.0787,2.0824,2.084,2.0882,2.0903,2.0935,2.0954,2.094,2.1012,2.0997,2.1022,2.1021,2.1035,2.1033,2.1099,2.1052,2.1052,2.1052,2.1052,0,2.0548,2.0589,2.0624,2.0655,2.0702,2.0724,2.0769,2.0791,2.0822,2.0856,2.0867,2.0899,2.0924,2.0959,2.0975,2.1021,2.1031,2.1041,2.1044,2.1039,2.1037,2.1051,2.1047,2.1054,2.1053,2.1053,2.1053,0,2.0585,2.061,2.0665,2.0708,2.072,2.0753,2.0789,2.0818,2.0839,2.0882,2.0893,2.0924,2.0966,2.0989,2.1041,2.1052,2.1103,2.1105,2.109,2.1091,2.1113,2.111,2.1188,2.1199,2.1147,2.1148,2.1148,0,2.0617,2.0649,2.0696,2.072,2.0742,2.0781,2.0807,2.0829,2.0856,2.09,2.0923,2.0966,2.1,2.1066,2.1093,2.1132,2.1135,2.1159,2.114,2.1133,2.1132,2.1129,2.1131,2.1162,2.1162,2.1163,2.1163,0,2.0671,2.0682,2.0719,2.076,2.0791,2.0825,2.0858,2.0877,2.0905,2.0934,2.0976,2.1003,2.1057,2.1098,2.1139,2.1161,2.1166,2.1169,2.1176,2.117,2.1158,2.1162,2.1096,2.1166,2.1166,2.1166,2.1166,2.1165,2.0705,2.0733,2.077,2.0811,2.0839,2.0869,2.0899,2.0923,2.0959,2.1004,2.1016,2.106,2.1095,2.1151,2.1174,2.1208,2.1204,2.1215,2.1217,2.1219,2.1219,2.1155,2.1216,2.1216,2.1216,2.1216,2.1216,0,2.0757,2.0781,2.0819,2.0865,2.0897,2.09,2.0937,2.0963,2.1002,2.1035,2.1069,2.1117,2.1157,2.1187,2.1228,2.1249,2.1252,2.1259,2.1256,2.126,2.1222,2.121,2.1255,2.1255,2.1255,2.1255,2.1255,2.1255,2.0788,2.0835,2.0851,2.0912,2.0936,2.098,2.1,2.1028,2.1054,2.1108,2.1141,2.1161,2.1192,2.1235,2.1271,2.1279,2.1292,2.1297,2.1305,2.1268,2.1263,2.1259,2.1248,2.1301,2.1301,2.1341,2.1341,2.1341]},{"header":{"parameterUnit":"m.s-1","parameterCategory":1,"la1":30.2991,"la2":30.254,"lo1":-89.0895,"lo2":-89.0444,"dy":0.0017,"dx":0.0017,"nx":28,"ny":28,"refTime":"2023-10-08T03:00:00:Z","depth":0,"parameterNumber":3,"parameterNumberName":"V-component_of_WINDS"},"data":[0,0,0,0,0,0,0,0,0,0,0,0,0,0,0,0,0,0,0,0,0,0,0,0,0,0,0,0,0,0,0,0,0,0,0,0,0,0,0,0,0,0,0,0,0,0,0,0,0,0,0,0,0,0,0,0,0,0,2.9976,2.9976,0,3.002,3.002,3.0021,3.0015,3.0015,3.0014,3.0013,3.0053,3.0054,3.0056,0,0,0,0,0,0,0,0,0,0,0,0,0,2.9882,2.9884,2.9976,2.9976,2.9977,3.002,3.002,3.0021,3.0016,3.0015,3.0014,3.0013,3.0052,3.0054,3.0056,0,0,0,0,0,0,0,0,0,0,0,0,0,2.9924,2.9884,2.9976,2.998,2.998,3.002,3.002,3.0021,3.0016,3.0015,3.0014,3.0013,3.0052,3.0054,3.0057,3.0093,0,0,3.0064,3.0065,0,0,0,0,0,0,0,0,2.9922,2.9927,2.9979,2.9979,2.998,3.0011,3.0002,3.0045,3.0016,3.0002,3.0013,3.0012,3.0039,3.0043,3.0053,3.0095,3.0096,3.0065,3.0066,3.0067,3.0068,0,0,0,0,0,0,0,2.9919,2.9925,2.9993,2.9979,2.998,2.9977,2.9982,3.001,3.0026,3.0003,3.0003,3.0009,3.004,3.0051,3.0054,3.0097,3.0064,3.0067,3.0068,3.0069,3.017,3.0171,0,0,0,0,0,0,2.9916,2.9923,2.9992,2.9994,2.9948,2.998,2.9985,3.0002,3.0026,3.0028,3.0009,3.0008,3.0047,3.0051,3.0055,3.0099,3.0067,3.007,3.0071,3.0169,3.017,3.0171,0,0,0,0,0,0,2.9914,2.9922,2.999,2.9959,2.9967,2.9983,3.0002,3.0004,3.0015,3.003,3.0033,3.0018,3.0046,3.0052,3.0084,3.01,3.0071,3.0073,3.0167,3.0169,3.0171,3.0187,0,0,0,0,0,0,2.9911,2.9921,2.9936,2.9959,2.9969,3.0019,3.0003,3.0005,3.002,3.0019,3.0039,3.0041,3.0046,3.008,3.0086,3.0103,3.0075,3.0166,3.0168,3.017,3.0185,3.0189,3.0192,0,0,0,0,0,2.9908,2.9938,2.9937,2.9945,2.9989,3.002,3.0025,3.0032,3.0021,3.0036,3.0046,3.0041,3.0098,3.0083,3.009,3.0108,3.0165,3.0167,3.017,3.0183,3.0188,3.0192,0,0,0,0,0,0,2.9914,2.9941,2.994,2.9979,2.9998,3.0019,3.0038,3.0037,3.0057,3.0055,3.006,3.0064,3.0097,3.0106,3.0089,3.0144,3.013,3.0134,3.0137,3.0142,3.0146,3.0142,3.0077,0,0,0,0,0,2.9921,2.9946,2.9967,3.0,3.0009,3.0022,3.0036,3.0039,3.0058,3.0065,3.0077,3.0094,3.0115,3.0129,3.015,3.0186,3.019,3.0202,3.0206,3.0209,3.0212,3.0231,3.0236,3.018,3.018,3.018,0,0,2.9934,2.9951,2.9967,3.0002,3.0016,3.004,3.0028,3.0055,3.0072,3.0068,3.01,3.0109,3.0128,3.0162,3.0178,3.0171,3.0228,3.0212,3.0214,3.0216,3.0234,3.0239,3.0244,3.0182,3.0181,3.0181,0,0,2.9969,2.9986,3.0015,3.003,3.0053,3.0062,3.0068,3.009,3.0097,3.0129,3.0127,3.0147,3.0184,3.0197,3.0209,3.025,3.0246,3.0257,3.0276,3.0294,3.0299,3.0303,3.0316,3.0321,3.026,3.026,3.026,0,2.9982,3.002,3.0029,3.0056,3.0071,3.007,3.0098,3.0112,3.014,3.0149,3.0142,3.0189,3.0201,3.0238,3.0248,3.0258,3.0265,3.0254,3.0298,3.0302,3.0305,3.0319,3.0324,3.0261,3.0261,3.0261,3.0261,0,3.0034,3.006,3.008,3.011,3.0127,3.0154,3.0165,3.0181,3.0183,3.0192,3.0223,3.0239,3.0262,3.0272,3.0273,3.0309,3.0304,3.0297,3.0282,3.0312,3.0324,3.0329,3.0263,3.0262,3.0262,3.0262,0,0,3.0074,3.0108,3.0115,3.0128,3.0154,3.0174,3.0201,3.0226,3.0239,3.0258,3.0279,3.0311,3.0306,3.0319,3.0322,3.0338,3.0369,3.0329,3.033,3.0335,3.0408,3.0412,3.0418,3.0367,3.0368,3.0369,3.0406,0,3.0111,3.0161,3.0169,3.0212,3.0236,3.0236,3.0259,3.0276,3.0285,3.0305,3.0314,3.0337,3.0328,3.0336,3.0352,3.0362,3.0383,3.0359,3.0385,3.0386,3.0379,3.0424,3.0429,3.0463,3.0411,3.0412,3.0412,0,3.0161,3.0184,3.0229,3.0252,3.0262,3.0283,3.0307,3.0327,3.0346,3.0351,3.0366,3.0368,3.0393,3.0378,3.0413,3.0397,3.0408,3.0414,3.0416,3.0417,3.04,3.0426,3.0474,3.0479,3.042,3.0419,3.0419,0,3.0185,3.0226,3.0259,3.027,3.0298,3.0312,3.0324,3.0342,3.0357,3.0377,3.0386,3.0408,3.042,3.0436,3.0443,3.0431,3.0477,3.0462,3.048,3.048,3.0489,3.0488,3.0539,3.0498,3.0498,3.0498,3.0498,0,3.0225,3.0252,3.027,3.029,3.032,3.0329,3.0358,3.0369,3.0386,3.0406,3.0408,3.0426,3.0435,3.0454,3.0459,3.0487,3.0492,3.0496,3.0497,3.0495,3.0495,3.0502,3.0499,3.0499,3.0499,3.0499,3.0498,0,3.0255,3.0269,3.0304,3.0328,3.0335,3.0356,3.0375,3.0393,3.0403,3.0429,3.0435,3.0449,3.0472,3.0481,3.0509,3.0512,3.0544,3.0543,3.0538,3.0538,3.0555,3.0553,3.0611,3.0618,3.0574,3.0574,3.0574,0,3.028,3.0301,3.0328,3.0343,3.0356,3.038,3.0395,3.0404,3.042,3.0444,3.0459,3.0483,3.0502,3.0539,3.055,3.0571,3.057,3.0589,3.0573,3.0571,3.0569,3.0568,3.0569,3.0592,3.0592,3.0593,3.0593,0,3.0321,3.0327,3.035,3.0376,3.0394,3.0414,3.0434,3.0445,3.0457,3.0475,3.05,3.0515,3.0544,3.0567,3.0589,3.0599,3.0597,3.0598,3.0603,3.0601,3.0597,3.0599,3.0545,3.0596,3.0596,3.0596,3.0596,3.0595,3.0348,3.0368,3.039,3.0415,3.0431,3.0449,3.0468,3.048,3.0502,3.0528,3.0532,3.0558,3.0576,3.0606,3.0617,3.0636,3.0631,3.0638,3.064,3.0641,3.0642,3.0595,3.064,3.064,3.064,3.064,3.064,0,3.0389,3.0404,3.0427,3.0455,3.0475,3.0475,3.0496,3.0512,3.0536,3.0554,3.0573,3.0602,3.0624,3.0638,3.066,3.0673,3.0672,3.0678,3.0676,3.0678,3.0646,3.0639,3.0678,3.0678,3.0678,3.0678,3.0678,3.0678,3.0412,3.0444,3.0453,3.0492,3.0506,3.0533,3.0546,3.0562,3.0576,3.0608,3.0628,3.0637,3.0653,3.0676,3.0696,3.07,3.0707,3.0713,3.0715,3.0685,3.0681,3.0677,3.067,3.0715,3.0715,3.0746,3.0746,3.0746]}]]